Wind_Speed
32 31 31 31 31 30 32 32 33 32 32 29 28 28 27 27 26 25 24 24 23 23 22 21 21 22 22 22 22 22 21 21 22 22 22 23 24 24 24 24 25 25 25 25
34 33 33 32 32 32 33 34 34 33 32 30 29 29 29 28 28 27 25 25 24 24 24 23 23 23 24 24 23 23 23 23 23 24 24 26 26 26 26 26 25 26 26 26
36 35 35 35 33 33 33 33 33 34 33 31 31 30 30 29 29 28 27 26 26 26 26 25 25 25 25 26 26 26 26 26 26 26 26 27 28 28 27 27 27 27 28 28
37 37 38 35 35 35 35 34 34 34 34 34 33 32 31 31 31 30 30 29 29 29 29 29 28 28 28 29 29 29 29 29 28 29 28 29 29 28 29 29 29 29 29 29
39 39 38 36 36 35 35 35 35 35 35 35 34 34 33 32 31 31 32 32 32 31 31 31 31 31 31 31 31 30 30 30 29 30 30 30 30 31 31 31 31 31 31 31
38 39 38 36 36 36 36 36 34 35 35 34 34 34 33 33 33 33 33 33 33 32 32 32 32 32 32 33 33 32 30 30 30 31 31 31 32 32 33 33 33 33 33 33
38 39 38 36 36 37 37 36 34 35 35 34 33 33 33 34 33 33 33 33 33 32 32 31 31 31 32 32 33 32 32 31 31 33 33 33 33 34 34 34 34 34 34 34
37 37 37 35 36 37 36 36 35 34 33 33 33 33 33 34 34 34 34 34 34 33 32 32 32 32 32 33 33 33 33 33 33 34 34 34 34 34 35 35 35 35 35 35
37 37 36 35 35 36 35 33 33 34 34 34 34 34 34 34 35 35 35 35 34 33 33 33 34 34 34 33 34 35 35 34 34 33 34 35 35 35 35 35 35 34 34 34
35 34 34 34 34 34 34 33 32 34 34 34 34 34 35 34 34 34 36 36 35 35 34 35 35 34 34 34 35 36 36 36 35 35 35 35 35 35 34 34 35 35 34 33
34 32 33 33 33 33 34 33 32 33 33 34 34 34 34 34 33 34 35 36 35 35 35 35 35 35 35 35 36 36 36 36 36 35 34 34 34 34 35 34 34 34 33 33
32 32 33 32 32 32 32 32 31 31 32 33 33 33 33 33 34 34 34 35 36 36 36 36 36 35 36 36 36 36 36 35 34 34 34 34 33 33 33 34 34 34 33 33
32 32 32 31 30 30 31 31 30 30 30 31 31 32 32 33 32 33 33 34 35 36 36 36 36 36 36 35 35 35 35 35 35 34 33 32 32 33 33 33 33 33 33 32
30 31 31 30 30 29 29 30 30 30 30 30 31 31 31 31 31 32 32 33 34 35 35 35 35 35 36 35 34 34 33 33 33 32 31 31 31 31 32 32 32 32 32 32
29 30 30 29 30 30 28 28 29 29 29 28 29 30 30 30 29 30 30 31 32 33 33 33 34 35 35 35 34 33 32 32 32 31 31 31 30 31 31 31 31 32 31 31
28 29 30 29 29 29 29 29 29 29 28 28 29 29 30 29 28 28 29 30 30 31 31 31 32 33 33 32 31 31 30 30 29 29 29 29 30 30 30 29 29 30 30 30
26 27 28 29 29 28 28 27 27 27 27 28 27 28 29 29 28 28 29 29 29 29 29 29 29 29 30 30 29 29 28 28 28 28 28 28 28 29 28 28 28 29 29 29
24 25 26 27 27 26 26 26 25 25 25 26 26 26 26 27 27 27 27 27 26 26 26 27 28 27 28 28 27 27 27 26 26 27 27 27 27 27 27 27 27 27 27 27
22 23 24 24 24 24 24 24 23 22 23 23 24 24 25 25 25 26 26 26 25 25 25 26 26 26 26 26 25 24 24 24 25 25 25 25 25 25 26 26 26 26 26 25
18 19 20 21 21 21 21 22 22 21 21 21 21 22 23 23 22 22 23 24 24 24 24 25 25 26 26 26 24 24 24 24 24 23 24 24 25 25 25 25 25 25 24 24
16 16 16 17 17 17 17 18 19 19 18 17 17 17 18 19 19 19 21 22 22 22 22 23 23 23 24 25 25 24 25 23 22 22 23 23 24 24 23 23 23 23 23 23
14 14 14 15 15 15 14 14 15 15 15 15 15 15 16 16 17 17 19 20 20 21 21 22 22 22 22 23 23 23 23 22 21 21 22 22 23 22 22 21 21 21 21 22
12 12 12 12 12 12 12 12 12 12 13 14 14 14 14 14 15 15 16 17 19 19 20 20 21 21 20 20 21 21 20 19 20 21 21 21 21 20 20 20 20 20 19 20
9 9 9 9 10 11 11 11 11 11 11 11 11 11 11 12 13 13 14 15 16 17 18 18 19 19 19 20 19 18 18 18 19 20 20 20 19 19 20 20 20 20 20 20
7 7 7 7 7 8 8 9 10 10 10 10 10 10 11 12 12 13 14 15 15 16 17 17 18 18 18 17 16 16 17 18 18 18 18 18 19 19 19 19 20 21 21 21
5 6 5 6 6 6 7 7 8 8 9 9 10 10 11 11 11 12 12 13 14 15 15 15 16 15 15 16 16 16 17 17 17 17 17 18 18 19 19 19 19 20 21 21
5 5 5 5 5 5 5 6 7 7 8 8 9 9 10 10 10 10 10 11 12 13 13 14 13 14 15 15 15 15 16 16 17 17 17 18 18 18 19 20 21 21 22 23
Wind_Direction
254 254 255 255 254 254 256 258 262 264 264 264 263 259 256 256 256 257 258 258 258 257 255 257 259 262 264 264 266 268 271 273 274 276 279 282 283 284 286 288 289 289 291 292
256 255 255 256 255 254 256 258 261 262 263 264 262 259 256 256 255 256 257 259 259 258 257 258 259 261 263 265 267 269 269 272 273 274 277 280 282 283 284 286 288 289 289 290
257 256 255 255 254 255 255 257 260 261 262 263 260 258 256 257 257 256 255 258 257 256 256 257 259 261 263 265 268 270 271 272 275 278 278 278 280 281 282 283 285 286 286 286
258 256 256 257 257 256 257 257 259 261 262 262 260 258 257 257 256 255 255 257 257 257 258 258 257 258 261 264 267 270 271 272 274 277 278 278 280 280 281 282 283 284 285 285
259 258 258 258 259 259 259 258 258 260 261 261 260 259 257 256 254 253 254 257 257 258 258 258 258 259 261 264 267 269 271 273 272 274 276 278 279 281 282 282 282 283 284 284
261 261 260 259 260 260 260 260 259 260 259 258 258 257 255 255 255 254 254 256 258 259 259 259 260 260 263 265 268 270 271 273 273 274 275 276 278 280 280 281 282 282 283 284
262 262 263 263 262 261 260 260 260 259 258 256 257 257 255 255 255 252 253 255 257 258 259 260 261 261 261 264 268 270 272 274 274 274 276 277 277 279 280 281 282 283 283 284
262 263 263 264 263 261 262 261 261 258 257 256 256 257 257 257 256 254 254 255 256 258 260 262 264 265 264 266 268 270 272 273 275 276 276 277 278 278 278 280 282 282 283 284
262 263 263 262 262 262 261 261 261 259 257 256 257 257 257 255 254 254 254 256 256 257 259 262 264 267 268 268 269 271 272 274 275 276 277 277 277 278 278 280 282 283 283 284
261 262 262 263 262 261 261 260 258 258 257 257 257 258 257 255 253 253 253 255 256 257 260 263 264 266 268 269 271 272 273 275 276 277 277 277 275 276 278 280 282 284 283 282
260 261 262 261 261 261 260 259 257 257 257 256 256 256 255 254 253 253 254 254 255 257 259 261 263 265 268 269 270 272 274 275 276 276 276 275 275 275 278 280 282 283 283 283
260 260 262 261 260 259 259 257 256 256 257 258 257 254 254 256 255 254 253 254 255 256 258 260 263 265 267 268 269 272 273 274 275 276 276 275 274 275 278 280 281 281 281 280
260 260 261 262 260 259 259 260 259 258 257 256 254 254 255 255 255 255 255 254 254 256 258 261 263 265 266 268 270 271 272 273 274 276 276 276 275 276 277 279 280 281 280 280
258 260 260 260 259 259 259 259 260 259 257 255 254 255 254 255 254 253 254 254 255 256 258 259 261 263 265 268 270 272 273 273 274 275 276 277 276 277 279 280 280 280 280 280
259 260 259 258 259 257 257 256 258 259 259 257 255 254 254 254 254 253 252 254 254 255 257 259 260 262 263 265 267 269 271 272 273 274 276 276 278 279 279 280 279 277 278 278
260 259 257 257 258 259 258 256 256 257 257 258 257 256 254 255 255 252 251 254 256 256 257 259 261 261 262 264 266 268 271 272 272 274 276 278 280 281 280 280 279 279 280 280
261 259 257 256 258 259 257 256 255 257 257 257 257 255 253 254 254 252 252 255 257 257 258 259 260 262 262 263 264 266 268 271 272 274 276 277 279 281 281 281 281 281 281 281
261 258 256 256 256 256 256 255 255 254 254 254 254 253 252 251 253 253 254 255 256 257 258 258 258 260 262 262 264 265 265 268 270 272 276 278 280 281 282 283 281 281 281 282
261 258 255 255 255 254 251 251 252 252 254 255 255 253 251 252 252 251 252 254 256 257 258 260 263 264 266 268 267 266 266 267 269 273 277 279 280 282 283 283 284 282 281 281
262 258 257 254 254 255 256 255 252 251 253 253 253 253 252 251 251 252 254 256 258 260 259 260 263 266 268 271 274 268 266 267 269 273 277 279 281 284 286 285 284 286 283 282
261 261 259 257 256 256 256 254 252 251 250 248 250 252 253 253 252 253 255 257 258 258 259 260 263 267 270 273 274 273 273 272 272 274 278 282 285 286 288 288 287 287 284 282
262 264 262 257 254 254 254 253 251 250 249 249 247 248 250 251 252 255 257 258 259 258 260 263 265 269 274 276 277 278 278 276 277 279 281 284 286 287 288 289 289 288 285 284
265 264 259 253 249 246 245 245 245 246 246 246 248 250 250 252 257 261 263 262 260 260 262 266 269 273 276 276 279 281 280 278 279 280 281 283 286 286 286 287 289 290 289 289
266 263 257 250 242 238 237 237 241 245 247 252 254 256 259 264 267 267 267 266 265 264 265 268 270 271 273 276 278 280 281 279 278 279 281 283 285 287 287 288 289 290 292 292
268 260 250 246 239 235 232 234 242 251 256 256 256 258 262 266 269 268 268 267 267 267 269 270 270 268 269 274 278 280 282 283 283 282 283 285 287 287 288 288 288 290 292 292
260 257 249 237 231 228 230 235 240 248 253 256 258 260 264 268 270 271 270 269 269 270 272 273 272 271 273 277 280 282 283 285 286 284 283 284 286 287 289 290 292 293 293 294
248 242 230 223 228 236 240 239 241 245 251 256 257 262 268 271 272 271 273 276 275 274 274 276 278 278 280 281 283 283 283 285 287 289 287 285 285 288 291 294 296 297 296 295
Height
5827 5829 5830 5831 5833 5834 5834 5835 5836 5838 5840 5843 5845 5846 5848 5850 5851 5853 5854 5855 5856 5857 5858 5859 5860 5861 5861 5861 5861 5861 5861 5861 5861 5861 5861 5861 5860 5859 5858 5857 5856 5854 5853 5852
5818 5820 5821 5822 5825 5826 5827 5827 5828 5829 5832 5835 5836 5837 5839 5842 5844 5845 5847 5849 5849 5850 5851 5852 5853 5854 5854 5854 5854 5854 5854 5855 5855 5854 5854 5854 5854 5852 5851 5850 5849 5847 5846 5845
5809 5811 5811 5813 5817 5818 5818 5819 5820 5821 5824 5826 5827 5829 5831 5833 5835 5837 5839 5841 5842 5843 5844 5845 5845 5846 5847 5847 5848 5847 5848 5848 5847 5846 5846 5847 5846 5845 5844 5843 5841 5840 5839 5837
5798 5801 5802 5808 5807 5809 5810 5811 5812 5813 5815 5817 5819 5820 5822 5825 5827 5829 5831 5833 5834 5835 5836 5836 5837 5838 5839 5839 5839 5840 5840 5840 5840 5839 5839 5839 5838 5837 5836 5835 5833 5832 5831 5829
5788 5789 5792 5797 5797 5799 5800 5802 5803 5804 5805 5807 5809 5811 5813 5816 5818 5820 5822 5824 5825 5827 5827 5828 5829 5830 5830 5831 5831 5831 5832 5832 5832 5832 5831 5830 5830 5829 5827 5826 5825 5824 5822 5821
5778 5780 5782 5788 5788 5789 5791 5791 5794 5795 5796 5798 5799 5802 5805 5807 5809 5811 5813 5815 5816 5817 5818 5819 5820 5821 5822 5823 5823 5823 5823 5823 5823 5823 5823 5822 5821 5820 5818 5817 5816 5815 5813 5812
5769 5770 5773 5777 5778 5779 5781 5783 5785 5785 5786 5788 5790 5792 5795 5797 5799 5801 5803 5805 5806 5808 5809 5810 5811 5811 5813 5814 5814 5814 5814 5814 5814 5814 5813 5812 5811 5810 5809 5807 5806 5805 5804 5802
5759 5761 5765 5767 5767 5769 5770 5772 5773 5775 5776 5778 5780 5782 5785 5787 5789 5791 5793 5795 5797 5798 5800 5801 5802 5802 5803 5804 5804 5804 5805 5804 5804 5804 5803 5802 5801 5801 5799 5798 5796 5795 5793 5792
5751 5754 5755 5756 5757 5758 5759 5761 5763 5765 5767 5769 5771 5773 5775 5777 5779 5781 5783 5786 5788 5789 5790 5791 5792 5793 5794 5794 5794 5795 5795 5795 5794 5794 5793 5792 5791 5790 5789 5788 5786 5785 5783 5782
5741 5743 5745 5746 5747 5748 5750 5751 5753 5755 5757 5759 5761 5763 5765 5767 5769 5771 5773 5776 5778 5779 5780 5782 5783 5783 5784 5785 5785 5785 5785 5785 5784 5784 5783 5782 5781 5780 5779 5778 5777 5775 5773 5772
5732 5734 5735 5736 5737 5739 5740 5741 5743 5744 5746 5748 5750 5753 5755 5757 5759 5761 5763 5765 5767 5769 5770 5772 5773 5774 5774 5775 5775 5774 5774 5774 5773 5773 5772 5772 5771 5770 5770 5769 5767 5766 5764 5763
5723 5725 5725 5727 5728 5729 5730 5731 5733 5735 5737 5738 5740 5743 5745 5747 5749 5751 5753 5755 5757 5759 5760 5762 5763 5764 5764 5764 5764 5764 5764 5764 5763 5763 5762 5762 5761 5760 5759 5759 5757 5756 5754 5753
5714 5715 5716 5718 5719 5720 5721 5722 5724 5725 5727 5728 5730 5732 5735 5737 5739 5741 5742 5744 5747 5749 5751 5752 5753 5754 5754 5754 5755 5755 5754 5754 5754 5753 5753 5752 5751 5751 5750 5749 5747 5746 5745 5744
5705 5707 5708 5709 5710 5711 5712 5713 5714 5716 5717 5719 5721 5722 5724 5727 5730 5731 5733 5735 5737 5739 5741 5742 5743 5744 5744 5744 5745 5745 5745 5745 5744 5744 5743 5742 5741 5741 5740 5739 5738 5736 5735 5734
5697 5698 5699 5700 5701 5702 5703 5704 5705 5707 5708 5709 5711 5713 5715 5718 5720 5722 5724 5726 5728 5730 5731 5732 5733 5734 5734 5735 5735 5735 5735 5735 5735 5734 5734 5733 5732 5731 5730 5729 5727 5726 5725 5724
5688 5688 5689 5691 5692 5693 5694 5695 5696 5698 5699 5701 5702 5704 5707 5709 5711 5713 5715 5717 5719 5720 5721 5723 5724 5724 5725 5726 5726 5726 5726 5726 5726 5725 5725 5724 5723 5722 5720 5719 5717 5716 5715 5714
5680 5681 5682 5683 5683 5684 5686 5687 5688 5690 5691 5693 5694 5696 5698 5701 5703 5705 5707 5709 5710 5712 5713 5714 5715 5715 5716 5716 5717 5717 5717 5717 5717 5716 5716 5715 5714 5713 5711 5709 5708 5707 5705 5704
5672 5673 5674 5675 5675 5676 5678 5679 5680 5682 5684 5685 5686 5688 5690 5693 5695 5697 5699 5700 5702 5703 5705 5706 5706 5707 5707 5707 5707 5707 5708 5708 5708 5708 5707 5706 5705 5704 5702 5701 5699 5698 5697 5696
5665 5666 5667 5667 5668 5669 5670 5671 5673 5675 5676 5678 5679 5681 5683 5686 5688 5689 5691 5693 5695 5696 5698 5698 5699 5700 5700 5700 5699 5699 5700 5700 5700 5700 5699 5698 5697 5695 5693 5692 5690 5689 5688 5687
5660 5660 5660 5661 5662 5662 5664 5666 5667 5668 5670 5671 5673 5675 5677 5679 5681 5683 5684 5687 5688 5689 5690 5691 5693 5693 5693 5692 5693 5693 5693 5693 5692 5692 5691 5690 5689 5687 5685 5683 5682 5680 5679 5678
5656 5656 5656 5656 5657 5658 5659 5660 5661 5663 5664 5665 5667 5669 5671 5672 5674 5676 5678 5680 5682 5683 5684 5685 5686 5686 5687 5686 5686 5686 5685 5685 5684 5683 5683 5682 5681 5679 5677 5676 5674 5673 5672 5670
5652 5652 5652 5652 5653 5654 5655 5656 5657 5659 5660 5662 5663 5665 5666 5668 5670 5671 5673 5674 5676 5676 5678 5679 5680 5680 5680 5680 5679 5678 5678 5677 5676 5676 5676 5675 5674 5672 5671 5669 5668 5666 5664 5663
5649 5649 5649 5649 5650 5651 5652 5653 5655 5656 5657 5659 5660 5661 5663 5664 5666 5667 5668 5669 5670 5671 5672 5673 5673 5674 5674 5674 5673 5672 5671 5670 5670 5670 5669 5668 5667 5666 5664 5663 5661 5659 5657 5656
5646 5646 5646 5646 5647 5648 5650 5651 5652 5654 5655 5656 5657 5659 5660 5661 5662 5663 5664 5664 5665 5666 5666 5667 5667 5668 5668 5668 5667 5666 5665 5665 5664 5663 5663 5662 5661 5659 5658 5656 5655 5653 5652 5650
5643 5644 5644 5645 5646 5647 5648 5649 5651 5652 5653 5654 5655 5656 5657 5658 5659 5659 5660 5660 5660 5661 5662 5662 5662 5662 5662 5662 5661 5661 5660 5659 5658 5657 5657 5656 5654 5653 5652 5650 5649 5647 5646 5644
5642 5643 5643 5644 5645 5646 5647 5648 5649 5650 5651 5652 5653 5654 5655 5655 5656 5656 5656 5656 5656 5657 5657 5657 5657 5656 5656 5656 5656 5655 5655 5654 5652 5651 5650 5650 5649 5647 5646 5644 5642 5641 5639 5637
5642 5642 5642 5643 5644 5644 5645 5646 5647 5648 5649 5650 5651 5651 5652 5652 5652 5653 5653 5653 5653 5653 5653 5652 5652 5652 5652 5651 5651 5650 5649 5648 5647 5646 5645 5644 5643 5641 5640 5638 5637 5634 5632 5630